YAOGAN 23 1 40305U 14071A 21016.47455808 .00000669 00000-0 35693-4 0 9997 2 40305 97.5477 321.1824 0002169 95.6398 40.8004 15.18573827342059 CZ-2C R/B 1 40306U 14071B 21016.49399575 .00003137 00000-0 64287-4 0 9992 2 40306 97.3526 331.3982 0016610 106.5387 253.7688 15.46720787346751